Lapse_Rate
6.5 6.5 6.4 6.4 6.4 6.5 6.6 6.6 6.5 6.7 6.8 6.9 7.0 6.9 6.8 6.8 6.9 7.1 7.2 7.2 7.3 7.2 7.2 7.0 6.8 6.9 6.9 6.9 7.4 7.0 6.6 6.3 6.1 6.1 6.2 6.0 5.8 5.8 5.8 6.0 5.6 5.7 5.5
6.7 6.8 6.8 6.8 7.0 7.2 7.3 7.5 7.5 7.4 7.3 7.3 7.3 7.2 7.0 7.0 7.1 7.2 7.6 7.6 7.5 7.3 7.3 7.2 7.2 7.2 7.1 7.3 7.2 7.1 7.0 6.6 6.5 6.2 5.9 6.1 5.6 5.8 5.7 5.9 5.7 5.6 5.5
7.0 7.1 7.4 7.6 7.7 7.9 8.0 7.9 7.9 7.8 7.7 7.6 7.6 7.4 7.3 7.2 7.2 7.0 7.0 7.2 7.3 7.2 7.1 7.5 7.4 7.4 7.2 7.3 7.3 7.1 6.9 6.8 6.7 6.7 6.5 6.2 5.8 5.5 5.6 5.8 5.8 5.5 5.5
7.3 7.4 7.5 7.6 7.8 7.9 7.7 7.4 7.4 7.6 7.7 7.4 7.5 7.4 7.4 7.2 7.3 6.9 4.5 5.1 6.7 6.8 6.5 7.1 7.5 7.4 7.2 7.0 7.0 7.0 6.9 6.7 6.7 6.5 6.6 6.5 5.9 5.6 5.5 5.7 5.8 5.3 5.4
7.2 7.3 7.0 6.6 7.0 7.0 6.9 7.4 6.6 7.2 7.6 7.6 7.7 7.6 7.8 7.9 7.8 6.8 6.6 6.7 6.8 7.0 7.3 7.2 7.5 7.4 7.2 7.0 6.9 6.8 6.8 6.7 6.7 6.5 6.4 6.6 6.2 5.6 5.5 5.5 5.8 5.5 5.3
6.8 5.9 5.9 5.3 6.7 6.6 7.2 7.7 7.3 7.5 7.8 7.5 8.0 7.4 7.0 7.4 7.6 6.7 6.8 7.1 7.1 6.8 7.0 7.0 7.1 7.1 6.9 6.8 6.7 6.6 6.5 6.4 6.4 6.4 6.5 6.3 6.3 5.7 5.4 5.5 5.7 5.6 5.2
6.8 7.1 7.1 7.2 7.0 7.0 7.1 7.2 7.2 7.1 6.8 6.9 7.2 7.5 6.9 6.9 6.5 6.5 6.5 6.8 7.0 7.0 6.9 6.9 7.1 6.9 6.8 6.7 6.5 6.4 6.4 6.4 6.4 6.4 6.5 6.3 6.3 5.6 5.4 5.4 5.5 5.7 5.2
7.4 7.2 7.2 7.2 7.2 7.1 7.2 7.1 6.9 6.9 6.7 6.7 7.0 7.0 6.5 6.2 6.3 6.3 6.4 6.6 6.5 6.4 6.6 6.6 6.6 6.7 6.6 6.4 6.3 6.2 6.3 6.4 6.5 6.4 6.3 6.1 6.2 6.0 5.4 5.2 5.4 5.5 5.2
7.4 7.1 6.9 6.9 7.0 7.1 7.2 7.2 6.8 6.8 6.8 6.9 6.7 6.4 6.1 6.3 6.4 6.4 6.5 6.5 6.6 6.7 6.7 6.7 6.6 6.6 6.5 6.4 6.3 6.4 6.4 6.6 6.6 6.3 6.2 6.2 6.1 6.2 5.3 5.1 5.2 5.4 5.3
6.7 6.7 6.6 6.6 6.7 6.6 6.5 6.4 6.6 6.8 6.9 6.8 6.8 6.7 6.7 6.7 6.8 6.8 6.8 6.9 6.9 6.9 7.0 7.0 6.9 6.8 6.7 6.6 6.6 6.5 6.5 6.6 6.4 6.4 6.1 6.0 5.9 6.1 5.4 5.1 5.1 5.4 5.4
6.4 6.3 6.2 6.3 6.4 6.5 6.6 6.8 6.8 6.9 6.9 6.9 6.9 7.0 7.0 6.9 6.9 6.9 6.9 6.8 6.8 6.9 6.9 6.8 6.7 6.5 6.4 6.4 6.4 6.3 6.2 6.3 6.5 6.4 6.1 5.8 6.0 6.2 5.6 4.9 5.3 5.2 5.4
6.2 6.2 6.3 6.4 6.4 6.5 6.7 6.8 6.9 6.9 7.0 7.0 7.0 7.0 6.9 6.9 6.7 6.7 6.7 6.6 6.6 6.5 6.5 6.4 6.3 6.3 6.1 6.0 6.0 5.8 5.9 5.9 6.0 6.0 6.1 6.0 6.0 6.1 5.6 4.9 5.2 5.1 5.5
6.2 6.2 6.4 6.5 6.7 6.8 6.8 6.9 6.8 6.7 6.7 6.6 6.6 6.7 6.6 6.6 6.7 6.6 6.6 6.7 6.6 6.5 6.3 6.2 6.2 6.0 5.8 5.9 5.8 5.4 5.4 5.3 5.2 5.4 5.4 6.0 6.2 5.6 5.2 5.2 5.5 5.3 5.7
6.4 6.6 6.6 6.7 6.7 6.8 6.8 6.8 6.8 6.8 6.8 6.7 6.7 6.8 6.9 7.1 7.2 7.2 6.9 6.8 6.8 6.9 6.9 6.9 6.7 6.4 5.8 5.3 5.6 5.4 5.3 5.4 5.2 5.4 5.6 5.9 5.8 5.6 5.6 5.3 5.6 5.3 5.7
6.8 6.8 6.8 6.9 6.8 6.7 6.6 6.5 6.6 6.7 6.7 6.8 6.7 6.6 6.7 6.9 6.8 6.6 6.6 6.5 6.5 6.5 6.4 6.3 6.2 5.9 5.4 5.0 5.0 5.1 5.5 5.5 5.1 5.0 5.6 5.8 5.5 5.6 5.7 5.3 5.7 5.3 5.9
6.9 6.8 6.8 6.7 6.6 6.6 6.6 6.6 6.5 6.6 6.6 6.3 6.2 6.3 6.4 6.3 6.4 6.3 6.2 6.3 6.2 6.1 6.3 6.3 5.9 5.6 5.6 5.3 5.1 5.0 5.3 5.6 6.0 5.5 5.4 5.6 5.6 5.7 5.8 5.7 5.7 5.3 5.7
6.6 6.6 6.5 6.5 6.6 6.6 6.5 6.5 6.7 6.7 6.5 6.4 6.4 6.1 6.0 6.1 5.9 5.9 5.9 5.8 5.8 5.7 5.9 5.9 5.9 5.6 5.3 5.3 5.6 5.4 5.2 5.7 6.0 5.7 6.1 5.9 5.9 5.7 5.8 6.0 5.7 5.6 5.5
6.6 6.6 6.6 6.5 6.5 6.6 6.6 6.6 6.6 6.5 6.7 6.6 6.0 5.9 5.8 5.9 5.7 5.6 5.6 5.6 5.6 5.6 5.6 5.6 5.6 5.7 5.6 5.4 5.1 5.1 5.2 5.6 6.0 6.1 6.5 6.5 6.3 6.0 5.9 5.8 6.0 5.9 5.6
6.6 6.5 6.4 6.4 6.4 6.4 6.4 6.4 6.4 6.3 6.3 6.1 6.1 6.1 6.0 5.8 5.8 5.7 5.7 5.6 5.6 5.9 6.0 5.9 5.8 5.8 5.7 5.6 5.4 5.3 5.4 5.5 5.7 5.9 6.2 6.4 6.3 6.2 6.2 6.2 5.9 6.1 5.6
6.2 6.2 6.2 6.2 6.1 6.2 6.1 6.1 6.1 6.1 6.1 6.0 5.7 5.6 5.7 5.8 5.8 5.8 5.6 5.7 5.9 5.9 6.0 6.1 6.0 5.9 6.0 5.8 5.5 5.5 5.5 5.8 5.9 6.1 6.2 6.2 6.2 6.3 5.8 6.0 6.3 6.3 5.7
6.0 6.1 6.1 6.0 6.0 6.2 6.2 6.2 6.1 6.0 6.0 5.7 5.4 5.3 5.2 5.4 5.5 5.8 6.0 6.0 5.9 6.0 6.0 6.1 6.2 6.0 5.9 5.9 5.8 5.8 5.8 6.1 6.4 6.4 6.6 6.2 6.4 6.5 5.7 5.8 5.9 6.0 5.8
6.3 6.0 6.1 6.1 6.1 6.2 6.2 6.1 5.9 5.6 5.3 5.2 5.2 5.1 5.1 5.1 5.1 5.2 5.5 5.7 5.9 6.2 6.3 6.4 6.4 6.2 6.1 5.8 5.8 5.7 6.0 6.2 6.4 6.5 6.7 6.4 6.3 6.4 6.2 6.0 5.7 6.0 5.9
6.0 5.8 5.8 5.6 5.7 5.9 5.9 5.6 4.8 4.5 4.6 4.8 4.9 5.1 5.2 5.2 5.2 5.2 5.4 5.6 5.8 5.9 6.1 6.2 6.1 6.1 6.0 5.7 5.8 5.9 6.1 6.1 5.9 6.2 6.6 6.3 6.4 6.5 6.4 5.9 5.6 5.5 5.4
5.3 5.1 5.0 5.1 5.3 5.2 5.0 4.9 4.8 4.7 4.7 4.9 5.0 5.0 5.1 5.2 5.3 5.4 5.5 5.5 5.6 5.7 5.9 6.0 5.6 5.7 5.8 6.0 6.0 6.0 6.0 6.3 6.1 6.4 6.6 6.4 6.4 6.5 6.5 6.5 5.7 5.9 5.8
5.4 5.1 5.0 4.9 5.0 5.0 4.9 4.9 4.6 4.8 4.8 5.0 5.1 4.9 4.6 4.6 4.8 5.2 5.3 5.5 5.7 5.8 5.8 5.4 5.2 5.6 5.6 6.0 5.9 6.1 6.0 5.9 6.2 6.4 6.1 6.1 6.2 6.4 6.5 6.6 6.6 6.0 6.4
5.3 5.2 4.8 4.8 4.7 5.0 5.0 4.8 4.9 4.8 4.6 4.8 4.7 3.9 4.1 4.1 4.6 5.0 5.3 5.4 5.4 5.4 5.4 5.3 5.1 5.2 5.6 5.7 5.8 6.0 6.0 5.9 5.9 6.0 6.0 5.8 6.0 6.6 6.7 6.5 6.4 6.1 6.0
Wind_Speed
12 11 9 8 7 7 6 5 2 3 4 3 3 3 4 6 6 6 6 6 6 6 5 6 6 6 4 4 4 4 3 4 4 1 3 4 3 4 4 6 8 4 2
9 7 8 6 4 4 6 8 8 9 9 8 8 9 9 12 11 6 7 6 6 6 6 5 6 4 6 6 5 7 5 5 4 5 4 4 5 5 4 3 4 7 5
8 8 8 9 10 8 8 6 6 7 6 7 6 6 6 11 17 19 18 9 7 6 7 6 6 5 5 4 6 7 4 3 4 3 4 2 3 2 2 2 3 3 5
13 12 10 8 9 7 6 6 3 5 5 5 5 6 6 9 8 15 22 18 9 4 5 5 5 5 6 6 7 8 6 5 4 3 3 3 2 3 2 3 3 3 3
13 12 9 7 8 7 3 9 5 4 4 2 2 6 2 11 6 8 8 9 8 9 7 7 6 7 8 8 5 7 7 6 4 5 3 3 4 3 5 3 4 2 4
13 9 3 3 6 4 7 7 1 5 5 3 5 6 7 8 6 5 9 7 5 6 7 8 7 9 9 10 10 13 12 10 10 6 5 5 7 5 4 5 4 3 2
6 4 3 6 1 3 2 4 4 3 5 5 5 5 6 7 9 8 11 5 6 6 7 7 8 6 8 7 9 10 13 15 8 10 8 8 6 9 6 5 5 4 4
4 3 3 4 5 4 4 4 2 2 1 1 1 4 6 5 8 10 13 8 6 7 8 8 7 9 8 5 7 8 8 7 11 6 7 7 6 9 11 10 9 5 2
5 4 4 5 6 6 7 6 4 4 3 4 5 4 3 6 9 13 10 7 7 10 8 8 8 7 10 7 6 7 9 10 7 9 9 9 9 10 10 7 5 4 2
5 4 4 4 4 5 5 5 3 4 5 5 6 5 6 7 11 13 12 5 6 7 8 8 12 8 6 4 3 5 8 11 5 4 4 6 6 7 16 12 9 7 3
2 4 5 5 5 5 4 4 4 5 6 6 6 6 7 7 10 14 13 4 4 4 6 7 5 10 8 5 3 5 6 5 6 5 5 4 3 5 7 5 10 5 4
3 5 5 6 5 5 6 5 6 6 6 6 5 5 4 6 6 9 9 5 4 0 3 4 6 9 8 6 4 7 8 7 4 4 3 4 5 6 6 6 7 5 5
3 3 4 5 6 6 6 7 5 6 5 5 4 4 5 4 5 9 10 10 8 4 4 6 8 7 8 7 6 7 6 3 5 3 4 6 6 7 6 4 3 4 4
5 6 6 6 7 7 5 5 4 5 4 4 4 5 6 5 5 6 6 4 7 6 7 6 7 7 8 8 6 4 4 5 5 6 5 5 3 3 6 6 4 4 3
5 5 5 4 5 5 5 5 5 6 5 4 5 4 5 7 7 9 10 8 7 6 7 4 3 3 4 4 5 5 4 4 4 7 6 5 6 7 7 4 4 3 4
3 3 3 4 4 4 4 5 8 9 11 12 13 8 7 10 14 15 14 11 10 6 3 3 4 4 5 5 5 7 4 6 5 5 6 7 7 8 7 7 6 6 7
3 4 3 3 4 4 5 6 7 8 10 14 15 15 11 13 16 15 11 9 8 3 4 6 5 7 8 8 7 6 6 8 5 5 5 7 7 8 7 9 8 8 7
4 8 4 3 4 6 7 7 6 6 8 9 8 8 10 13 12 8 7 2 4 3 5 6 7 7 7 8 8 7 7 6 6 7 7 6 8 9 8 9 11 10 9
4 4 4 4 4 6 6 6 6 7 6 6 7 7 7 11 11 5 6 4 6 7 7 7 7 7 7 8 8 6 7 7 7 7 7 7 8 9 10 9 10 12 11
5 9 7 5 5 4 5 6 7 7 6 5 5 5 7 6 7 6 4 5 6 7 8 8 8 8 8 8 7 5 5 6 6 7 7 7 7 9 9 9 9 11 11
4 5 8 4 4 6 4 5 6 6 5 5 6 7 10 5 8 8 8 7 8 8 8 9 8 9 8 8 7 6 7 7 5 6 6 7 7 8 10 10 10 13 13
4 5 5 4 4 5 6 6 6 6 5 5 6 7 12 6 6 7 8 9 9 9 8 9 10 8 9 8 7 6 8 8 5 4 5 5 6 7 8 6 6 10 13
5 5 5 4 4 6 6 5 6 6 6 5 7 9 8 8 7 7 9 9 9 10 10 9 10 10 8 6 6 6 5 4 4 4 4 4 5 6 7 6 5 2 6
5 5 6 5 4 4 4 6 6 5 5 8 8 8 7 8 9 9 9 8 9 9 8 7 6 7 5 4 4 4 5 6 4 4 6 5 6 6 6 4 5 6 4
5 5 5 5 5 4 5 5 4 4 5 6 8 7 7 8 8 8 8 8 8 8 7 7 6 7 8 10 9 9 9 9 7 5 6 9 11 14 8 7 8 9 9
5 6 5 4 5 4 5 6 4 4 4 6 7 6 6 7 7 8 7 8 7 7 8 6 7 10 11 8 8 10 11 12 10 10 8 8 10 11 9 10 13 9 12
Wind_Direction
191 190 182 184 183 184 191 205 251 358 356 357 331 309 287 276 267 261 253 246 234 231 220 217 224 223 226 218 167 199 174 180 211 234 211 200 166 181 199 192 194 189 217
178 165 171 174 153 123 85 83 81 80 75 75 67 50 20 2 315 271 263 257 243 248 254 244 236 216 225 190 194 218 218 190 163 200 190 205 193 210 208 187 204 199 207
119 108 102 106 100 94 106 101 80 83 75 77 69 61 43 46 30 8 329 267 237 229 245 231 247 229 234 202 210 225 229 204 178 166 196 176 207 177 200 224 199 182 212
111 106 101 101 107 112 111 91 85 117 127 127 138 155 111 47 55 41 317 317 326 309 306 292 271 247 234 224 215 224 218 204 188 187 184 175 168 194 143 193 233 204 196
88 87 73 95 40 355 12 96 351 310 108 0 330 300 178 152 120 135 255 301 317 339 339 327 316 295 263 242 212 227 208 209 208 200 187 178 183 173 193 191 210 183 221
87 75 100 76 57 321 325 59 170 277 279 38 340 9 337 5 44 268 254 264 310 327 318 313 304 297 288 279 247 234 205 204 216 208 205 201 205 194 160 177 161 158 234
85 80 96 71 49 264 273 55 53 1 9 11 337 355 359 355 340 302 297 304 309 295 298 283 301 293 295 299 290 261 242 229 227 197 210 206 191 193 164 162 177 174 201
105 86 40 50 29 360 12 9 357 234 330 265 351 351 356 321 301 298 308 303 285 275 268 265 272 287 291 304 310 285 262 243 231 226 213 209 202 192 194 189 184 159 77
48 51 44 37 25 10 3 351 337 357 356 350 0 356 296 295 282 286 293 301 290 283 270 264 271 275 286 311 292 267 267 263 234 218 217 218 208 195 182 137 159 138 181
61 46 45 41 34 3 344 340 318 341 340 344 328 308 292 299 290 293 303 312 285 287 287 270 273 255 279 321 310 306 296 288 258 228 250 262 241 192 174 186 162 169 139
71 44 23 9 353 339 334 324 325 326 324 317 313 309 297 286 295 295 297 285 256 285 294 293 277 240 237 275 326 292 273 305 273 228 230 214 207 180 191 165 174 154 160
48 29 358 343 335 331 332 317 322 317 316 313 310 313 313 314 316 321 333 289 234 229 303 291 294 308 283 300 304 299 292 292 252 203 206 232 209 201 208 182 182 181 184
39 355 330 331 332 336 332 320 323 326 322 313 312 300 297 292 292 284 268 285 305 298 261 261 267 282 294 294 289 306 297 291 282 215 218 223 213 215 188 143 160 191 183
32 10 1 3 348 340 332 322 315 307 298 292 297 293 294 296 298 295 302 290 282 290 296 294 263 257 266 263 286 265 284 286 272 259 230 225 183 217 203 170 174 171 168
10 358 351 338 329 308 289 275 288 278 240 267 278 258 281 294 284 275 292 298 299 293 322 284 278 262 259 269 270 256 235 230 237 273 266 216 207 212 213 184 166 160 175
335 331 321 316 305 295 297 308 294 284 294 297 286 259 282 257 282 288 295 298 296 291 279 267 275 261 258 259 256 265 260 246 239 232 266 251 210 213 207 210 196 184 192
304 298 295 291 308 303 309 304 301 305 294 292 290 284 267 254 285 290 293 295 280 261 267 282 263 267 266 259 249 242 254 260 237 224 238 242 231 223 197 213 202 193 193
301 281 273 255 287 310 307 302 290 291 306 309 285 270 293 293 294 283 288 273 288 231 258 257 261 253 255 257 256 247 250 252 235 235 229 238 242 232 219 217 209 198 194
296 292 294 278 289 283 284 280 275 282 278 278 292 296 280 281 290 243 198 241 268 275 268 258 257 259 252 249 248 242 240 250 238 234 229 228 255 236 231 215 193 197 196
273 275 273 285 296 268 281 299 295 280 285 300 304 285 306 315 307 295 265 261 260 263 267 270 272 268 260 258 250 246 251 247 246 240 233 228 234 247 239 230 204 207 197
257 270 275 275 283 294 284 294 305 302 302 299 299 302 293 291 295 301 305 304 299 289 278 279 277 274 266 260 248 247 248 251 237 245 234 231 231 239 239 230 221 206 199
254 276 281 263 281 297 298 291 286 285 284 287 302 303 294 288 298 304 301 299 294 288 284 281 281 271 271 260 247 242 259 244 239 249 243 224 239 244 242 241 244 226 195
248 280 276 279 277 284 295 295 292 288 290 298 305 310 310 307 300 298 299 295 297 296 289 274 276 275 277 267 251 248 252 257 258 248 263 262 244 243 230 207 198 209 222
242 263 259 264 269 274 284 292 296 298 308 315 310 306 304 304 299 299 298 301 302 298 327 332 323 311 310 320 326 324 315 310 323 314 306 274 259 233 226 213 175 176 181
250 264 252 255 264 273 277 271 286 302 295 308 306 308 310 309 309 306 306 302 308 316 316 314 315 319 317 317 311 301 292 296 293 282 281 268 260 257 235 209 188 200 195
258 257 258 250 258 260 264 276 272 284 289 300 298 301 298 303 309 313 318 319 317 317 313 311 309 310 308 297 284 292 296 284 275 250 242 242 249 240 238 216 200 203 208